Starlink 3375

operational
NORAD ID: 51114 Int'l Des: 2022-005 Owner: SPXS Country: US Constellation: starlink
LEOCIRCULAR

关于 Starlink 3375

正在加载描述...

实时位置

正在加载3D地球...

即将过境

高度历史

Altitude vs Time

uPlot chart will show altitude changes over time

两行轨道根数

1 51114U 22005L 25354.01959957 .00000602 00000-0 55891-4 0 9995
2 51114 53.2189 286.7734 0001594 84.3826 275.7347 15.08839726216855
Epoch: Dec 20, 2025 • Age: 15 hours

当前状态

高度 557.2 km
速度 7.58 km/s
星下点 -47.79°S, 168.57°W
发射日期 Jan 19, 2022
运行时间 3.9 years
类型 internet

技术详情

分类 Payload
质量 297.00 kg
干质量 275.00 kg
总质量 297.00 kg
长度 0.20 m
直径 2.80 m
跨度 9.00 m
形状 Box + pan
制造商 SPXS
平台类型 Starlink
阶段状态 In Orbit
所有者/国家 SPXS/US

大型星座

Loading constellations...